422  
ASUS42 KMHX 202013  
RWRMHX  
WEATHER ROUNDUP FOR EASTERN NORTH CAROLINA  
NATIONAL WEATHER SERVICE NEWPORT/MOREHEAD CITY NC  
400 PM EDT FRI JUL 20 2018  
 
NOTE: "FAIR" INDICATES FEW OR NO CLOUDS BELOW 12,000 FEET  
WITH NO SIGNIFICANT WEATHER AND/OR S TO VISIBILITY
 
 
NCZ015>017-031-032-045>047-102-103-202100-  
NORTH COAST  
 
CITY SKY/WX TMP DP RH WIND PRES REMARKS
 
EDENTON PTSUNNY 83 70 63 E10 30.04F  
ELIZABETH CITY FAIR 82 70 66 E13 30.05F  
KITTY HAWK N/A 79 67 65 E6 30.04F  
MANTEO PTSUNNY 79 68 68 E10G17 30.05F  
 

 
 
NCZ045>047-081-094-103-104-202100-  
CENTRAL COAST  
 
CITY SKY/WX TMP DP RH WIND PRES REMARKS
 
FRISCO LGT RAIN 76 71 85 SE18G28 30.04S  
 

 
 
NCZ095-097-098-100-101-202100-  
SOUTHERN COAST  
 
CITY SKY/WX TMP DP RH WIND PRES REMARKS
 
BEAUFORT LGT RAIN 74 73 97 E10G17 30.01F  
CEDAR ISLAND NOT AVBL  
JACKSONVILLE HVY RAIN 75 74 96 E17 29.99F FOG  
PINEY ISLAND NOT AVBL  
WILMINGTON RAIN 75 73 93 SE7 29.98F FOG  
 

 
 
NCZ011>013-027>030-043-044-078>080-089-090>093-098-202100-  
COASTAL PLAIN  
 
CITY SKY/WX TMP DP RH WIND PRES REMARKS
 
AHOSKIE CLOUDY 80 68 67 MISG 30.04F  
CLINTON FAIR 79 74 84 CALM 29.99F  
ELIZABETHTOWN CLOUDY 77 73 85 E7 29.99F  
GOLDSBORO FAIR 86 68 54 E17 29.98F  
GREENVILLE FAIR 82 68 61 E9 30.03F  
HAVELOCK RAIN 74 74 100 E12 30.02F FOG  
KENANSVILLE RAIN 77 73 88 E7 30.00F  
KINSTON PTSUNNY 82 68 61 E14 30.02F  
NEW BERN LGT RAIN 75 74 96 E5 30.02F FOG  
RICHLANDS HVY RAIN 73 72 94 NE14 30.01S FOG  
ROCKY MOUNT PTSUNNY 84 68 58 NE10 30.02F  
WASHINGTON CLOUDY 81 69 67 E12G17 30.03F  
WHITEVILLE LGT RAIN 77 75 93 NE6 29.96F  
 

 
 
AMZ130-135-150-152-154-156-158-170-250-252-270-ANZ085-086-088-633-658-670-202100-  
MARINE OBSERVATIONS  
 
STATION/POSITION TIME TEMP WIND PRES WAVE SWELL
 
AIR SEA DIR/SP/G HT/PER HT/PER  
(UTC) (F) (DEG/KT/KT) (MB) (FT/S) (FT/S)  
CHESAPEAKE LIGHT NOT AVBL  
64 E VA BEACH 1950 79 78 110/ 10/ 12 1018.7 3/ 7 2/ 7  
DUCK 1948 79 77 90/ 12/ 14 1017.4  
2 E DUCK 2000 79 N/A 2/ 5  
OREGON INLET 1942 79 79 80/ 10/ 12 1017.4  
13E OREGON INLT 1948 78 N/A 4/ 6 3/ 6  
HATTERAS CG 1948 76 80 120/ 14/ 21 1017.0  
DIAMOND BUOY 1950 76 83 110/ 19/ 23 1017.2 6/ 7  
CAPE LOOKOUT 2000 50/ 20/ 23 1016.1  
BEAUFORT LAB 1942 74 82 70/ 5/ 9 1016.7  
30 SE NEW RVR IN 1908 78 82 90/ 6/ 8 1015.9  
30 SE NEW RVR IN 2000 82 N/A 3/ 7  
27 SE WRIGHTSVLE 1908 78 81 90/ 6/ 10 1015.2  
5 SE WRIGHTSVLE 1908 75 82 200/ 4/ 6 1014.9  
225 S CAPE HAT 2000 230/ 14/ 17 1015.9  
41 SE CHARLESTON 1950 80 82 190/ 16/ 19 1012.6 4/ 5 2/ 9  
 

 
 
 
CLICK HERE TO GO TO PREVIOUS BULLETINS.

The Nexlab NC Page Main Text Page